| time (UTC) | temp F | wind direction | speed knots | gust knots | rain 1hr in | rain 24hr in | rain mn in | humidity % | barometer mb |
| 20260906095420 | 76 | 236 | 0.9 | 1.7 | 0.00 | 0.00 | 0.00 | 91 | 1013.3 |
| 20260906094914 | 76 | 247 | 0.9 | 2.6 | 0.00 | 0.00 | 0.00 | 91 | 1013.4 |
| 20260906094409 | 76 | 0 | 0.0 | 1.7 | 0.00 | 0.00 | 0.00 | 91 | 1013.3 |
| 20260906093905 | 76 | 274 | 0.0 | 2.6 | 0.00 | 0.00 | 0.00 | 91 | 1013.3 |
| 20260906093401 | 76 | 28 | 0.9 | 1.7 | 0.00 | 0.00 | 0.00 | 91 | 1013.5 |
| 20260906092900 | 76 | 304 | 0.0 | 1.7 | 0.00 | 0.00 | 0.00 | 91 | 1013.3 |
| 20260906092355 | 76 | 264 | 1.7 | 2.6 | 0.00 | 0.00 | 0.00 | 91 | 1013.3 |
| 20260906091850 | 76 | 13 | 1.7 | 1.7 | 0.00 | 0.00 | 0.00 | 91 | 1013.2 |
| 20260906091347 | 76 | 129 | 0.0 | 0.9 | 0.00 | 0.00 | 0.00 | 91 | 1013.3 |
| 20260906090843 | 76 | 230 | 0.0 | 0.0 | 0.00 | 0.00 | 0.00 | 91 | 1013.2 |
| 20260906090342 | 76 | 22 | 0.0 | 0.9 | 0.00 | 0.00 | 0.00 | 91 | 1013.3 |
| 20260906085836 | 76 | 241 | 0.0 | 0.9 | 0.00 | 0.00 | 0.00 | 91 | 1013.2 |
| 20260906085336 | 76 | 154 | 0.0 | 0.9 | 0.00 | 0.00 | 0.00 | 91 | 1013.3 |
| 20260906084831 | 76 | 164 | 0.0 | 1.7 | 0.00 | 0.00 | 0.00 | 91 | 1013.3 |
| 20260906084331 | 76 | 134 | 1.7 | 2.6 | 0.00 | 0.00 | 0.00 | 91 | 1013.4 |
| 20260906083825 | 76 | 137 | 0.0 | 1.7 | 0.00 | 0.00 | 0.00 | 91 | 1013.3 |
| 20260906083321 | 76 | 129 | 0.0 | 0.9 | 0.00 | 0.00 | 0.00 | 91 | 1013.4 |
| 20260906082821 | 76 | 230 | 0.0 | 0.9 | 0.00 | 0.00 | 0.00 | 90 | 1013.3 |
| 20260906082316 | 76 | 13 | 0.0 | 0.9 | 0.00 | 0.00 | 0.00 | 90 | 1013.3 |
| 20260906081812 | 76 | 56 | 0.9 | 1.7 | 0.00 | 0.00 | 0.00 | 90 | 1013.2 |
| 20260906081307 | 76 | 62 | 0.0 | 1.7 | 0.00 | 0.00 | 0.00 | 90 | 1013.1 |
| 20260906080803 | 76 | 37 | 0.0 | 1.7 | 0.00 | 0.00 | 0.00 | 90 | 1013.0 |
| 20260906080300 | 76 | 53 | 0.9 | 1.7 | 0.00 | 0.00 | 0.00 | 90 | 1013.0 |
| 20260906075758 | 76 | 25 | 0.0 | 1.7 | 0.00 | 0.00 | 0.00 | 89 | 1013.1 |
| 20260906075253 | 77 | 37 | 0.0 | 1.7 | 0.00 | 0.00 | 0.00 | 89 | 1013.2 |
| 20260906074749 | 77 | 357 | 1.7 | 1.7 | 0.00 | 0.00 | 0.00 | 89 | 1013.2 |
| 20260906074248 | 77 | 6 | 1.7 | 1.7 | 0.00 | 0.00 | 0.00 | 89 | 1013.2 |
| 20260906073747 | 77 | 297 | 0.0 | 0.9 | 0.00 | 0.00 | 0.00 | 89 | 1013.2 |
| 20260906073242 | 77 | 7 | 0.0 | 0.0 | 0.00 | 0.00 | 0.00 | 89 | 1013.3 |
| 20260906072738 | 77 | 293 | 0.0 | 0.0 | 0.00 | 0.00 | 0.00 | 89 | 1013.2 |
| 20260906072234 | 77 | 230 | 0.0 | 0.0 | 0.00 | 0.00 | 0.00 | 89 | 1013.6 |
| 20260906071730 | 77 | 166 | 0.0 | 0.9 | 0.00 | 0.00 | 0.00 | 89 | 1013.4 |
| 20260906071229 | 77 | 142 | 0.0 | 0.9 | 0.00 | 0.00 | 0.00 | 89 | 1013.4 |
| 20260906070726 | 77 | 7 | 0.0 | 0.0 | 0.00 | 0.00 | 0.00 | 89 | 1013.4 |
| 20260906070222 | 77 | 7 | 0.0 | 0.0 | 0.00 | 0.00 | 0.00 | 89 | 1013.4 |
| 20260906065721 | 77 | 166 | 0.0 | 0.0 | 0.00 | 0.00 | 0.00 | 89 | 1013.3 |
| 20260906065216 | 77 | 166 | 0.0 | 0.0 | 0.00 | 0.00 | 0.00 | 89 | 1013.5 |
| 20260906064712 | 77 | 297 | 0.0 | 0.9 | 0.00 | 0.00 | 0.00 | 89 | 1013.5 |
| 20260906064207 | 77 | 315 | 0.0 | 1.7 | 0.00 | 0.00 | 0.00 | 89 | 1013.5 |
| 20260906063702 | 77 | 130 | 0.0 | 0.0 | 0.00 | 0.00 | 0.00 | 89 | 1013.7 |
| 20260906063158 | 77 | 130 | 0.0 | 0.0 | 0.00 | 0.00 | 0.00 | 89 | 1013.6 |
| 20260906062654 | 77 | 130 | 0.0 | 0.9 | 0.00 | 0.00 | 0.00 | 89 | 1013.7 |
| 20260906062152 | 77 | 66 | 0.0 | 0.9 | 0.00 | 0.00 | 0.00 | 89 | 1013.7 |
| 20260906061648 | 77 | 333 | 0.0 | 0.9 | 0.00 | 0.00 | 0.00 | 89 | 1013.5 |
| 20260906061143 | 77 | 343 | 0.0 | 0.9 | 0.00 | 0.00 | 0.00 | 89 | 1013.6 |
| 20260906060639 | 77 | 121 | 0.9 | 2.6 | 0.00 | 0.00 | 0.00 | 89 | 1013.6 |
| 20260906060137 | 77 | 163 | 0.9 | 1.7 | 0.00 | 0.00 | 0.00 | 89 | 1013.7 |
| 20260906055632 | 77 | 141 | 0.9 | 1.7 | 0.00 | 0.00 | 0.00 | 88 | 1013.7 |
| 20260906055127 | 77 | 37 | 0.0 | 1.7 | 0.00 | 0.00 | 0.00 | 88 | 1013.7 |
| 20260906054622 | 77 | 67 | 0.9 | 0.9 | 0.00 | 0.00 | 0.00 | 87 | 1013.6 |
| 20260906054117 | 77 | 124 | 1.7 | 1.7 | 0.00 | 0.00 | 0.00 | 87 | 1013.6 |
| 20260906053614 | 78 | 129 | 0.0 | 0.9 | 0.00 | 0.00 | 0.00 | 86 | 1013.4 |
| 20260906053108 | 78 | 142 | 0.0 | 0.0 | 0.00 | 0.00 | 0.00 | 86 | 1013.2 |
| 20260906052604 | 78 | 142 | 0.0 | 0.9 | 0.00 | 0.00 | 0.00 | 86 | 1013.3 |
| 20260906052100 | 78 | 142 | 0.0 | 0.9 | 0.00 | 0.00 | 0.00 | 86 | 1013.5 |
| 20260906051556 | 78 | 76 | 0.0 | 0.0 | 0.00 | 0.00 | 0.00 | 86 | 1013.5 |
| 20260906051052 | 78 | 89 | 0.0 | 1.7 | 0.00 | 0.00 | 0.00 | 85 | 1013.5 |
| 20260906050546 | 78 | 89 | 0.0 | 1.7 | 0.00 | 0.00 | 0.00 | 85 | 1013.4 |
| 20260906050042 | 78 | 47 | 0.0 | 0.9 | 0.00 | 0.00 | 0.00 | 85 | 1013.7 |
| 20260906045540 | 78 | 129 | 0.0 | 0.0 | 0.00 | 0.03 | 0.03 | 85 | 1013.6 |
| 20260906045036 | 78 | 129 | 0.0 | 0.9 | 0.00 | 0.03 | 0.03 | 85 | 1013.5 |
| 20260906044531 | 78 | 119 | 0.0 | 0.9 | 0.00 | 0.03 | 0.03 | 85 | 1013.6 |
| 20260906044027 | 78 | 114 | 0.9 | 1.7 | 0.00 | 0.03 | 0.03 | 85 | 1013.6 |
| 20260906043522 | 79 | 0 | 0.0 | 1.7 | 0.00 | 0.03 | 0.03 | 85 | 1013.5 |
| 20260906043018 | 79 | 31 | 0.9 | 1.7 | 0.00 | 0.03 | 0.03 | 85 | 1013.7 |
| 20260906042516 | 79 | 9 | 0.0 | 1.7 | 0.00 | 0.03 | 0.03 | 85 | 1013.6 |
| 20260906042011 | 79 | 357 | 0.9 | 1.7 | 0.00 | 0.03 | 0.03 | 85 | 1013.7 |
| 20260906041508 | 79 | 117 | 0.0 | 0.9 | 0.00 | 0.03 | 0.03 | 85 | 1013.7 |
| 20260906041008 | 79 | 66 | 0.0 | 0.9 | 0.00 | 0.03 | 0.03 | 84 | 1013.9 |
| 20260906040503 | 79 | 76 | 0.0 | 1.7 | 0.00 | 0.03 | 0.03 | 84 | 1013.9 |
| 20260906035957 | 79 | 124 | 0.0 | 1.7 | 0.00 | 0.03 | 0.03 | 84 | 1013.8 |
| 20260906035453 | 79 | 44 | 0.9 | 1.7 | 0.00 | 0.03 | 0.03 | 84 | 1013.7 |
| 20260906034948 | 79 | 89 | 0.0 | 0.9 | 0.00 | 0.03 | 0.03 | 84 | 1013.5 |
| 20260906034443 | 79 | 122 | 0.9 | 1.7 | 0.00 | 0.03 | 0.03 | 84 | 1013.8 |
| 20260906033939 | 79 | 104 | 0.0 | 0.0 | 0.00 | 0.03 | 0.03 | 84 | 1013.7 |
| 20260906033438 | 79 | 89 | 0.0 | 0.9 | 0.00 | 0.03 | 0.03 | 84 | 1013.8 |
| 20260906032934 | 80 | 7 | 0.0 | 1.7 | 0.00 | 0.03 | 0.03 | 84 | 1013.7 |
| 20260906032431 | 80 | 50 | 0.0 | 1.7 | 0.00 | 0.03 | 0.03 | 84 | 1013.8 |
| 20260906031925 | 80 | 139 | 0.9 | 1.7 | 0.00 | 0.03 | 0.03 | 84 | 1013.9 |
| 20260906031420 | 80 | 195 | 0.0 | 0.0 | 0.00 | 0.03 | 0.03 | 83 | 1013.8 |
| 20260906030915 | 80 | 20 | 0.9 | 1.7 | 0.00 | 0.03 | 0.03 | 83 | 1013.8 |
| 20260906030410 | 80 | 117 | 0.0 | 0.9 | 0.00 | 0.03 | 0.03 | 83 | 1013.7 |
| 20260906025904 | 80 | 155 | 0.0 | 1.7 | 0.00 | 0.03 | 0.03 | 83 | 1013.7 |
| 20260906025359 | 80 | 155 | 0.9 | 1.7 | 0.00 | 0.03 | 0.03 | 83 | 1013.7 |
| 20260906024858 | 80 | 129 | 0.0 | 1.7 | 0.00 | 0.03 | 0.03 | 84 | 1013.8 |
| 20260906024357 | 80 | 130 | 0.9 | 1.7 | 0.00 | 0.03 | 0.03 | 83 | 1013.7 |
| 20260906023852 | 80 | 142 | 0.9 | 1.7 | 0.00 | 0.03 | 0.03 | 83 | 1013.7 |
| 20260906023348 | 80 | 130 | 0.0 | 0.0 | 0.00 | 0.03 | 0.03 | 82 | 1013.6 |
| 20260906022843 | 81 | 129 | 0.9 | 1.7 | 0.00 | 0.03 | 0.03 | 82 | 1013.6 |
| 20260906022338 | 81 | 211 | 0.0 | 0.9 | 0.00 | 0.03 | 0.03 | 81 | 1013.6 |
| 20260906021834 | 81 | 297 | 0.0 | 0.0 | 0.00 | 0.03 | 0.03 | 81 | 1013.6 |
| 20260906021333 | 81 | 297 | 0.0 | 0.9 | 0.00 | 0.03 | 0.03 | 81 | 1013.6 |
| 20260906020828 | 81 | 113 | 0.0 | 1.7 | 0.00 | 0.03 | 0.03 | 81 | 1013.4 |
| 20260906020327 | 81 | 123 | 1.7 | 1.7 | 0.00 | 0.03 | 0.03 | 81 | 1013.3 |
| 20260906015822 | 81 | 15 | 0.0 | 0.9 | 0.00 | 0.03 | 0.03 | 81 | 1013.3 |
| 20260906015321 | 81 | 172 | 0.9 | 1.7 | 0.00 | 0.03 | 0.03 | 81 | 1013.2 |
| 20260906014820 | 82 | 122 | 0.9 | 1.7 | 0.00 | 0.03 | 0.03 | 80 | 1012.9 |
| 20260906014316 | 82 | 89 | 0.0 | 0.9 | 0.00 | 0.03 | 0.03 | 80 | 1012.9 |
| 20260906013812 | 82 | 155 | 1.7 | 2.6 | 0.00 | 0.03 | 0.03 | 80 | 1013.0 |
| 20260906013307 | 82 | 129 | 0.0 | 0.9 | 0.00 | 0.03 | 0.03 | 79 | 1012.8 |
| 20260906012803 | 82 | 117 | 0.0 | 0.9 | 0.00 | 0.03 | 0.03 | 78 | 1012.6 |
| 20260906012257 | 83 | 142 | 0.0 | 0.9 | 0.00 | 0.03 | 0.03 | 77 | 1012.4 |
| 20260906011752 | 83 | 117 | 0.0 | 0.0 | 0.00 | 0.03 | 0.03 | 77 | 1012.5 |
| 20260906011252 | 83 | 62 | 0.0 | 0.0 | 0.00 | 0.03 | 0.03 | 77 | 1012.2 |
| 20260906010748 | 83 | 64 | 0.9 | 1.7 | 0.00 | 0.03 | 0.03 | 76 | 1012.2 |
| 20260906010244 | 83 | 50 | 0.0 | 1.7 | 0.00 | 0.03 | 0.03 | 76 | 1012.2 |
| 20260906005738 | 84 | 154 | 0.0 | 0.9 | 0.00 | 0.03 | 0.03 | 76 | 1012.1 |
| 20260906005232 | 84 | 187 | 0.0 | 0.9 | 0.00 | 0.03 | 0.03 | 75 | 1012.2 |
| 20260906004732 | 84 | 297 | 0.0 | 0.0 | 0.00 | 0.03 | 0.03 | 75 | 1012.3 |
| 20260906004227 | 84 | 2 | 0.9 | 1.7 | 0.00 | 0.03 | 0.03 | 75 | 1012.5 |
| 20260906003721 | 84 | 79 | 0.9 | 0.9 | 0.00 | 0.03 | 0.03 | 74 | 1012.3 |
| 20260906003212 | 85 | 269 | 0.0 | 0.9 | 0.00 | 0.03 | 0.03 | 74 | 1012.2 |
| 20260906002712 | 85 | 89 | 0.0 | 0.9 | 0.00 | 0.03 | 0.03 | 73 | 1012.2 |
| 20260906002207 | 85 | 65 | 0.0 | 0.9 | 0.00 | 0.03 | 0.03 | 73 | 1012.3 |
| 20260906001702 | 85 | 52 | 0.0 | 0.9 | 0.00 | 0.03 | 0.03 | 73 | 1012.4 |
| 20260906001201 | 85 | 37 | 0.0 | 0.0 | 0.00 | 0.03 | 0.03 | 73 | 1012.6 |
| 20260906000657 | 85 | 37 | 0.0 | 1.7 | 0.00 | 0.03 | 0.03 | 73 | 1012.5 |
| 20260906000152 | 85 | 11 | 1.7 | 1.7 | 0.00 | 0.03 | 0.03 | 73 | 1012.3 |
| 20260905235651 | 86 | 327 | 2.6 | 2.6 | 0.00 | 0.03 | 0.03 | 73 | 1012.5 |
| 20260905235146 | 86 | 149 | 1.7 | 1.7 | 0.00 | 0.03 | 0.03 | 73 | 1012.3 |
| 20260905234641 | 86 | 142 | 0.0 | 1.7 | 0.00 | 0.03 | 0.03 | 72 | 1012.4 |
| 20260905234137 | 86 | 162 | 0.0 | 1.7 | 0.00 | 0.03 | 0.03 | 72 | 1012.4 |
| 20260905233632 | 86 | 165 | 0.9 | 2.6 | 0.00 | 0.03 | 0.03 | 72 | 1012.5 |
| 20260905233126 | 86 | 129 | 0.0 | 1.7 | 0.00 | 0.03 | 0.03 | 72 | 1012.5 |
| 20260905232622 | 86 | 147 | 1.7 | 5.2 | 0.00 | 0.03 | 0.03 | 72 | 1012.5 |
| 20260905232117 | 86 | 125 | 1.7 | 2.6 | 0.00 | 0.03 | 0.03 | 73 | 1012.2 |
| 20260905231617 | 86 | 128 | 0.9 | 1.7 | 0.00 | 0.03 | 0.03 | 74 | 1012.4 |
| 20260905231114 | 86 | 119 | 0.9 | 2.6 | 0.00 | 0.03 | 0.03 | 74 | 1012.2 |
| 20260905230609 | 86 | 125 | 2.6 | 3.5 | 0.00 | 0.03 | 0.03 | 75 | 1012.1 |
| 20260905230107 | 86 | 344 | 1.7 | 4.3 | 0.00 | 0.03 | 0.03 | 76 | 1012.2 |
| 20260905225606 | 86 | 158 | 1.7 | 2.6 | 0.00 | 0.03 | 0.03 | 76 | 1012.5 |
| 20260905225101 | 86 | 129 | 0.0 | 1.7 | 0.00 | 0.03 | 0.03 | 75 | 1012.5 |
| 20260905224556 | 87 | 153 | 1.7 | 4.3 | 0.09 | 0.03 | 0.03 | 73 | 1012.5 |
| 20260905224055 | 88 | 150 | 2.6 | 4.3 | 0.12 | 0.03 | 0.03 | 72 | 1012.3 |
| 20260905223553 | 89 | 188 | 2.6 | 7.8 | 0.00 | 0.01 | 0.01 | 70 | 1012.6 |
| 20260905223049 | 89 | 95 | 1.7 | 2.6 | 0.00 | 0.01 | 0.01 | 70 | 1012.5 |
| 20260905222548 | 88 | 131 | 1.7 | 5.2 | 0.00 | 0.01 | 0.01 | 70 | 1012.5 |
| 20260905222044 | 88 | 158 | 1.7 | 3.5 | 0.00 | 0.01 | 0.01 | 70 | 1012.4 |
| 20260905221540 | 88 | 129 | 1.7 | 6.1 | 0.00 | 0.01 | 0.01 | 70 | 1012.5 |
| 20260905221036 | 88 | 195 | 0.9 | 2.6 | 0.00 | 0.01 | 0.01 | 70 | 1012.2 |
| 20260905220531 | 89 | 153 | 0.9 | 3.5 | 0.00 | 0.01 | 0.01 | 69 | 1012.1 |
| 20260905220028 | 89 | 171 | 2.6 | 4.3 | 0.00 | 0.01 | 0.01 | 68 | 1012.3 |
| 20260905215526 | 89 | 163 | 2.6 | 2.6 | 0.00 | 0.01 | 0.01 | 67 | 1012.2 |
| 20260905215023 | 89 | 189 | 1.7 | 5.2 | 0.00 | 0.01 | 0.01 | 67 | 1012.2 |
| 20260905214519 | 90 | 129 | 3.5 | 4.3 | 0.00 | 0.01 | 0.01 | 66 | 1012.1 |
| 20260905214014 | 90 | 113 | 1.7 | 4.3 | 0.00 | 0.01 | 0.01 | 66 | 1012.2 |
| 20260905213509 | 91 | 126 | 1.7 | 6.1 | 0.00 | 0.01 | 0.01 | 65 | 1012.1 |
| 20260905213004 | 91 | 177 | 1.7 | 4.3 | 0.00 | 0.01 | 0.01 | 64 | 1012.1 |
| 20260905212459 | 92 | 127 | 4.3 | 4.3 | 0.00 | 0.01 | 0.01 | 64 | 1012.1 |
| 20260905211958 | 92 | 176 | 1.7 | 5.2 | 0.00 | 0.01 | 0.01 | 62 | 1012.2 |
| 20260905211454 | 93 | 308 | 1.7 | 3.5 | 0.00 | 0.01 | 0.01 | 61 | 1012.3 |
| 20260905210950 | 94 | 284 | 1.7 | 8.7 | 0.00 | 0.01 | 0.01 | 60 | 1012.2 |
| 20260905210445 | 94 | 135 | 2.6 | 7.0 | 0.00 | 0.01 | 0.01 | 60 | 1012.3 |
| 20260905205944 | 94 | 240 | 0.0 | 4.3 | 0.00 | 0.01 | 0.01 | 60 | 1012.0 |
| 20260905205439 | 94 | 268 | 5.2 | 9.6 | 0.00 | 0.01 | 0.01 | 59 | 1012.1 |
| 20260905204938 | 95 | 148 | 3.5 | 8.7 | 0.00 | 0.01 | 0.01 | 58 | 1012.3 |
| 20260905204434 | 95 | 140 | 2.6 | 6.1 | 0.00 | 0.01 | 0.01 | 56 | 1012.2 |
| 20260905203933 | 96 | 166 | 3.5 | 5.2 | 0.00 | 0.01 | 0.01 | 55 | 1012.1 |
| 20260905203429 | 95 | 118 | 0.9 | 2.6 | 0.00 | 0.01 | 0.01 | 56 | 1012.3 |
| 20260905202924 | 95 | 229 | 0.0 | 6.1 | 0.00 | 0.01 | 0.01 | 56 | 1012.3 |
| 20260905202419 | 95 | 175 | 2.6 | 5.2 | 0.00 | 0.01 | 0.01 | 56 | 1012.3 |
| 20260905201915 | 94 | 151 | 1.7 | 4.3 | 0.00 | 0.01 | 0.01 | 57 | 1012.1 |
| 20260905201410 | 95 | 161 | 0.9 | 2.6 | 0.00 | 0.01 | 0.01 | 57 | 1012.4 |
| 20260905200910 | 94 | 148 | 1.7 | 6.1 | 0.00 | 0.01 | 0.01 | 58 | 1012.4 |
| 20260905200406 | 94 | 273 | 1.7 | 4.3 | 0.00 | 0.01 | 0.01 | 58 | 1012.6 |
| 20260905195903 | 94 | 205 | 0.0 | 1.7 | 0.00 | 0.01 | 0.01 | 59 | 1012.6 |
| 20260905195359 | 94 | 103 | 0.0 | 3.5 | 0.00 | 0.01 | 0.01 | 61 | 1012.5 |
| 20260905194854 | 93 | 304 | 1.7 | 5.2 | 0.00 | 0.01 | 0.01 | 63 | 1012.5 |
| 20260905194353 | 92 | 296 | 2.6 | 4.3 | 0.00 | 0.01 | 0.01 | 65 | 1012.4 |
| 20260905193848 | 91 | 346 | 0.0 | 1.7 | 0.00 | 0.01 | 0.01 | 67 | 1012.6 |
| 20260905193342 | 91 | 151 | 1.7 | 2.6 | 0.00 | 0.01 | 0.01 | 67 | 1012.8 |
| 20260905192838 | 91 | 223 | 0.0 | 1.7 | 0.00 | 0.01 | 0.01 | 66 | 1012.8 |
| 20260905192334 | 91 | 240 | 0.0 | 1.7 | 0.00 | 0.01 | 0.01 | 64 | 1012.8 |
| 20260905191833 | 91 | 190 | 1.7 | 3.5 | 0.05 | 0.01 | 0.01 | 64 | 1013.1 |
| 20260905191332 | 93 | 157 | 1.7 | 3.5 | 0.02 | 0.00 | 0.00 | 60 | 1013.3 |
| 20260905190831 | 95 | 131 | 4.3 | 7.0 | 0.00 | 0.00 | 0.00 | 56 | 1013.2 |
| 20260905190331 | 96 | 117 | 5.2 | 5.2 | 0.00 | 0.00 | 0.00 | 53 | 1013.3 |
| 20260905185830 | 98 | 200 | 2.6 | 6.1 | 0.00 | 0.00 | 0.00 | 52 | 1013.1 |
| 20260905185325 | 99 | 277 | 0.9 | 3.5 | 0.00 | 0.00 | 0.00 | 50 | 1013.0 |
| 20260905184824 | 100 | 123 | 1.7 | 4.3 | 0.00 | 0.00 | 0.00 | 51 | 1013.0 |
| 20260905184323 | 99 | 154 | 3.5 | 4.3 | 0.00 | 0.00 | 0.00 | 52 | 1013.5 |
| 20260905183822 | 97 | 186 | 2.6 | 5.2 | 0.00 | 0.00 | 0.00 | 54 | 1013.5 |
| 20260905183317 | 96 | 172 | 0.0 | 2.6 | 0.00 | 0.00 | 0.00 | 54 | 1013.5 |
| 20260905182812 | 97 | 143 | 1.7 | 2.6 | 0.00 | 0.00 | 0.00 | 53 | 1013.8 |
| 20260905182312 | 99 | 77 | 1.7 | 3.5 | 0.00 | 0.00 | 0.00 | 50 | 1013.7 |
| 20260905181807 | 99 | 198 | 0.9 | 3.5 | 0.00 | 0.00 | 0.00 | 49 | 1013.7 |
| 20260905181306 | 100 | 146 | 2.6 | 6.1 | 0.00 | 0.00 | 0.00 | 48 | 1013.8 |
| 20260905180800 | 102 | 188 | 3.5 | 4.3 | 0.00 | 0.00 | 0.00 | 45 | 1013.9 |
| 20260905180255 | 102 | 224 | 2.6 | 4.3 | 0.00 | 0.00 | 0.00 | 41 | 1013.9 |
| 20260905175750 | 102 | 314 | 2.6 | 4.3 | 0.00 | 0.00 | 0.00 | 43 | 1014.0 |
| 20260905175245 | 101 | 295 | 2.6 | 3.5 | 0.00 | 0.00 | 0.00 | 45 | 1014.0 |
| 20260905174740 | 98 | 348 | 4.3 | 6.1 | 0.00 | 0.00 | 0.00 | 47 | 1014.2 |
| 20260905174236 | 96 | 0 | 0.0 | 1.7 | 0.00 | 0.00 | 0.00 | 50 | 1014.2 |
| 20260905173732 | 96 | 337 | 1.7 | 2.6 | 0.00 | 0.00 | 0.00 | 49 | 1014.4 |
| 20260905173227 | 96 | 19 | 0.0 | 2.6 | 0.00 | 0.00 | 0.00 | 49 | 1014.3 |
| 20260905172727 | 96 | 165 | 0.9 | 2.6 | 0.00 | 0.00 | 0.00 | 48 | 1014.4 |
| 20260905172221 | 96 | 357 | 2.6 | 3.5 | 0.00 | 0.00 | 0.00 | 49 | 1014.5 |
| 20260905171717 | 96 | 240 | 1.7 | 4.3 | 0.00 | 0.00 | 0.00 | 48 | 1014.5 |
| 20260905171213 | 95 | 351 | 3.5 | 4.3 | 0.00 | 0.00 | 0.00 | 51 | 1014.5 |
| 20260905170710 | 95 | 273 | 2.6 | 4.3 | 0.00 | 0.00 | 0.00 | 52 | 1014.8 |
| 20260905170210 | 95 | 146 | 1.7 | 2.6 | 0.00 | 0.00 | 0.00 | 52 | 1014.8 |
| 20260905165709 | 95 | 8 | 3.5 | 3.5 | 0.00 | 0.00 | 0.00 | 51 | 1015.0 |
| 20260905165205 | 95 | 326 | 0.0 | 4.3 | 0.00 | 0.00 | 0.00 | 52 | 1015.1 |
| 20260905164659 | 95 | 310 | 1.7 | 4.3 | 0.00 | 0.00 | 0.00 | 53 | 1015.2 |
| 20260905164159 | 94 | 356 | 1.7 | 3.5 | 0.00 | 0.00 | 0.00 | 54 | 1015.1 |
| 20260905163655 | 94 | 70 | 0.9 | 6.1 | 0.00 | 0.00 | 0.00 | 53 | 1015.0 |
| 20260905163151 | 94 | 276 | 0.9 | 2.6 | 0.00 | 0.00 | 0.00 | 57 | 1015.1 |
| 20260905162647 | 94 | 77 | 3.5 | 7.0 | 0.00 | 0.00 | 0.00 | 55 | 1015.2 |
| 20260905162147 | 93 | 7 | 1.7 | 3.5 | 0.00 | 0.00 | 0.00 | 57 | 1015.1 |
| 20260905161641 | 93 | 346 | 1.7 | 4.3 | 0.00 | 0.00 | 0.00 | 57 | 1015.4 |
| 20260905161139 | 93 | 356 | 2.6 | 4.3 | 0.00 | 0.00 | 0.00 | 57 | 1015.4 |
| 20260905160639 | 93 | 307 | 1.7 | 5.2 | 0.00 | 0.00 | 0.00 | 58 | 1015.5 |
| 20260905160133 | 92 | 359 | 1.7 | 4.3 | 0.00 | 0.00 | 0.00 | 59 | 1015.3 |
| 20260905155633 | 92 | 275 | 0.9 | 3.5 | 0.00 | 0.00 | 0.00 | 59 | 1015.4 |
| 20260905155131 | 92 | 325 | 0.9 | 2.6 | 0.00 | 0.00 | 0.00 | 59 | 1015.4 |
| 20260905154626 | 92 | 352 | 0.9 | 2.6 | 0.00 | 0.00 | 0.00 | 60 | 1015.4 |
| 20260905154122 | 91 | 51 | 0.0 | 2.6 | 0.00 | 0.00 | 0.00 | 61 | 1015.5 |
| 20260905153617 | 91 | 358 | 0.0 | 4.3 | 0.00 | 0.00 | 0.00 | 62 | 1015.4 |
| 20260905153113 | 91 | 21 | 1.7 | 3.5 | 0.00 | 0.00 | 0.00 | 64 | 1015.6 |
| 20260905152607 | 90 | 320 | 1.7 | 3.5 | 0.00 | 0.00 | 0.00 | 63 | 1015.5 |
| 20260905152102 | 90 | 19 | 2.6 | 2.6 | 0.00 | 0.00 | 0.00 | 66 | 1015.6 |
| 20260905151557 | 89 | 252 | 0.0 | 1.7 | 0.00 | 0.00 | 0.00 | 67 | 1015.5 |
| 20260905151052 | 89 | 302 | 1.7 | 3.5 | 0.00 | 0.00 | 0.00 | 69 | 1015.5 |
| 20260905150548 | 88 | 41 | 1.7 | 2.6 | 0.00 | 0.00 | 0.00 | 70 | 1015.5 |
| 20260905150045 | 87 | 75 | 0.0 | 1.7 | 0.00 | 0.00 | 0.00 | 71 | 1015.5 |
| 20260905145539 | 87 | 254 | 1.7 | 3.5 | 0.00 | 0.00 | 0.00 | 72 | 1015.6 |
| 20260905145038 | 87 | 347 | 0.0 | 2.6 | 0.00 | 0.00 | 0.00 | 73 | 1015.6 |
| 20260905144533 | 86 | 259 | 1.7 | 2.6 | 0.00 | 0.00 | 0.00 | 74 | 1015.6 |
| 20260905144032 | 85 | 25 | 1.7 | 2.6 | 0.00 | 0.00 | 0.00 | 75 | 1015.7 |
| 20260905143532 | 85 | 358 | 1.7 | 1.7 | 0.00 | 0.00 | 0.00 | 77 | 1015.6 |
| 20260905143027 | 84 | 356 | 0.9 | 2.6 | 0.00 | 0.00 | 0.00 | 77 | 1015.6 |
| 20260905142525 | 84 | 18 | 0.9 | 2.6 | 0.00 | 0.00 | 0.00 | 78 | 1015.5 |
| 20260905142021 | 83 | 309 | 0.0 | 2.6 | 0.00 | 0.00 | 0.00 | 80 | 1015.6 |
| 20260905141515 | 83 | 9 | 1.7 | 2.6 | 0.00 | 0.00 | 0.00 | 80 | 1015.8 |
| 20260905141012 | 82 | 19 | 1.7 | 1.7 | 0.00 | 0.00 | 0.00 | 81 | 1015.7 |
| 20260905140507 | 82 | 27 | 0.9 | 1.7 | 0.00 | 0.00 | 0.00 | 82 | 1015.9 |
| 20260905140005 | 81 | 16 | 0.0 | 2.6 | 0.00 | 0.00 | 0.00 | 83 | 1015.8 |
| 20260905135501 | 81 | 45 | 0.0 | 2.6 | 0.00 | 0.00 | 0.00 | 83 | 1015.7 |
| 20260905134956 | 80 | 13 | 0.0 | 1.7 | 0.00 | 0.00 | 0.00 | 85 | 1015.7 |
| 20260905134455 | 80 | 326 | 0.0 | 1.7 | 0.00 | 0.00 | 0.00 | 85 | 1015.6 |
| 20260905133955 | 79 | 333 | 1.7 | 1.7 | 0.00 | 0.00 | 0.00 | 86 | 1015.9 |
| 20260905133450 | 79 | 322 | 0.0 | 1.7 | 0.00 | 0.00 | 0.00 | 87 | 1015.7 |
| 20260905132949 | 78 | 284 | 0.0 | 1.7 | 0.00 | 0.00 | 0.00 | 87 | 1015.7 |
| 20260905132445 | 78 | 320 | 0.0 | 1.7 | 0.00 | 0.00 | 0.00 | 87 | 1015.9 |
| 20260905131939 | 78 | 62 | 0.0 | 2.6 | 0.00 | 0.00 | 0.00 | 87 | 1015.7 |
| 20260905131436 | 77 | 335 | 0.9 | 1.7 | 0.00 | 0.00 | 0.00 | 88 | 1015.8 |
| 20260905130935 | 77 | 224 | 0.0 | 1.7 | 0.00 | 0.00 | 0.00 | 88 | 1015.8 |
| 20260905130430 | 77 | 303 | 0.0 | 1.7 | 0.00 | 0.00 | 0.00 | 88 | 1015.8 |
| 20260905125930 | 77 | 304 | 0.0 | 0.9 | 0.00 | 0.00 | 0.00 | 89 | 1015.9 |
| 20260905125424 | 77 | 326 | 0.0 | 1.7 | 0.00 | 0.00 | 0.00 | 89 | 1015.8 |
| 20260905124920 | 76 | 321 | 0.0 | 1.7 | 0.00 | 0.00 | 0.00 | 90 | 1015.8 |
| 20260905124417 | 76 | 321 | 0.0 | 1.7 | 0.00 | 0.00 | 0.00 | 90 | 1015.9 |
| 20260905123916 | 75 | 320 | 0.0 | 1.7 | 0.00 | 0.00 | 0.00 | 90 | 1015.8 |
| 20260905123413 | 75 | 310 | 0.0 | 1.7 | 0.00 | 0.00 | 0.00 | 90 | 1015.8 |
| 20260905122908 | 75 | 269 | 0.0 | 1.7 | 0.00 | 0.00 | 0.00 | 90 | 1015.7 |
| 20260905122407 | 75 | 291 | 0.0 | 1.7 | 0.00 | 0.00 | 0.00 | 90 | 1015.8 |
| 20260905121903 | 75 | 316 | 0.0 | 0.9 | 0.00 | 0.00 | 0.00 | 90 | 1015.7 |
| 20260905121359 | 74 | 6 | 0.0 | 0.9 | 0.00 | 0.00 | 0.00 | 90 | 1015.7 |
| 20260905120857 | 74 | 353 | 0.0 | 0.9 | 0.00 | 0.00 | 0.00 | 90 | 1015.5 |
| 20260905120352 | 74 | 341 | 0.0 | 1.7 | 0.00 | 0.00 | 0.00 | 90 | 1015.5 |
| 20260905115847 | 74 | 75 | 0.0 | 0.9 | 0.00 | 0.00 | 0.00 | 90 | 1015.5 |
| 20260905115346 | 74 | 41 | 0.0 | 1.7 | 0.00 | 0.00 | 0.00 | 90 | 1015.5 |
| 20260905114841 | 74 | 114 | 0.0 | 1.7 | 0.00 | 0.00 | 0.00 | 90 | 1015.5 |
| 20260905114340 | 74 | 129 | 0.0 | 0.9 | 0.00 | 0.00 | 0.00 | 90 | 1015.3 |
| 20260905113840 | 74 | 142 | 0.0 | 0.9 | 0.00 | 0.00 | 0.00 | 90 | 1015.4 |
| 20260905113336 | 74 | 154 | 0.0 | 0.9 | 0.00 | 0.00 | 0.00 | 90 | 1015.4 |
| 20260905112831 | 74 | 218 | 0.0 | 0.9 | 0.00 | 0.00 | 0.00 | 90 | 1015.4 |
| 20260905112326 | 74 | 347 | 0.0 | 1.7 | 0.00 | 0.00 | 0.00 | 90 | 1015.3 |
| 20260905111821 | 74 | 69 | 0.0 | 0.9 | 0.00 | 0.00 | 0.00 | 89 | 1015.4 |
| 20260905111315 | 74 | 343 | 0.0 | 0.9 | 0.00 | 0.00 | 0.00 | 89 | 1015.2 |
| 20260905110814 | 74 | 38 | 0.9 | 0.9 | 0.00 | 0.00 | 0.00 | 89 | 1015.1 |
| 20260905110308 | 74 | 165 | 0.0 | 1.7 | 0.00 | 0.00 | 0.00 | 89 | 1015.3 |
| 20260905105804 | 74 | 129 | 0.0 | 0.9 | 0.00 | 0.00 | 0.00 | 89 | 1015.0 |
| 20260905105306 | 74 | 55 | 0.0 | 0.9 | 0.00 | 0.00 | 0.00 | 89 | 1015.1 |
| 20260905104757 | 74 | 135 | 0.0 | 1.7 | 0.00 | 0.00 | 0.00 | 89 | 1015.0 |
| 20260905104254 | 75 | 217 | 0.0 | 0.9 | 0.00 | 0.00 | 0.00 | 88 | 1015.0 |
| 20260905103753 | 75 | 103 | 0.0 | 1.7 | 0.00 | 0.00 | 0.00 | 88 | 1015.1 |
| 20260905103249 | 75 | 89 | 0.0 | 1.7 | 0.00 | 0.00 | 0.00 | 88 | 1015.0 |
| 20260905102744 | 75 | 75 | 0.0 | 0.9 | 0.00 | 0.00 | 0.00 | 88 | 1015.1 |
| 20260905102242 | 75 | 134 | 0.0 | 0.9 | 0.00 | 0.00 | 0.00 | 88 | 1015.1 |
| 20260905101741 | 75 | 95 | 0.0 | 0.9 | 0.00 | 0.00 | 0.00 | 88 | 1015.0 |
| 20260905101239 | 75 | 62 | 0.0 | 0.9 | 0.00 | 0.00 | 0.00 | 88 | 1015.1 |
| 20260905100734 | 75 | 25 | 0.0 | 0.0 | 0.00 | 0.00 | 0.00 | 88 | 1015.1 |
| 20260905100230 | 75 | 38 | 0.0 | 0.9 | 0.00 | 0.00 | 0.00 | 88 | 1015.2 |
| 20260905095730 | 75 | 75 | 0.0 | 0.9 | 0.00 | 0.00 | 0.00 | 87 | 1015.1 |